KC0FGX-1 Weather Reports


time (UTC)temp
C
wind
direction
speed
KPH
gust
KPH
rain 1hr
cm
rain 24hr
cm
rain mn
cm
humidity
%
barometer
mb
20260504150628 21 259 8.0 16.1 0.00 0.08 0.08 53 1001.3
20260504120308 12 0 0.0 0.0 0.00 0.05 0.05 86 1002.5
20260504080947 11 0 0.0 0.0 0.00 0.05 0.05 90 1004.4
20260504050627 13 74 0.0 1.6 0.00 0.00 0.00 74 1006.4
20260504044947 13 0 0.0 0.0 0.00 0.00 0.00 75 1006.3
20260504043307 12 283 0.0 3.2 0.00 0.00 0.00 81 1006.3
20260504041627 12 0 0.0 0.0 0.00 0.00 0.00 82 1006.3
20260504035947 12 0 0.0 0.0 0.00 0.00 0.00 82 1006.3
20260504034307 12 0 0.0 0.0 0.00 0.00 0.00 82 1006.6
20260504032627 12 0 0.0 0.0 0.00 0.00 0.00 80 1006.7
20260504030947 12 0 0.0 0.0 0.00 0.00 0.00 77 1006.8
20260504025308 13 0 0.0 0.0 0.00 0.00 0.00 76 1006.8
20260504023626 13 0 0.0 0.0 0.00 0.00 0.00 77 1007.1
20260504021948 14 0 0.0 0.0 0.00 0.00 0.00 73 1006.9
20260504020307 15 0 0.0 0.0 0.00 0.00 0.00 69 1007.0
20260504014627 16 0 0.0 0.0 0.00 0.00 0.00 64 1006.8
20260504012947 17 0 0.0 0.0 0.00 0.00 0.00 59 1006.8
20260504011306 18 0 0.0 0.0 0.00 0.00 0.00 53 1006.9
20260504005627 19 0 0.0 0.0 0.00 0.00 0.00 51 1006.9
20260504003947 20 281 0.0 3.2 0.00 0.00 0.00 50 1007.0
20260504002307 21 282 3.2 6.4 0.00 0.00 0.00 46 1007.1
20260504000627 21 272 1.6 8.0 0.00 0.00 0.00 44 1007.1
20260503234946 21 272 3.2 9.7 0.00 0.00 0.00 43 1007.1
20260503233307 21 274 3.2 8.0 0.00 0.00 0.00 43 1007.2
20260503225947 21 281 4.8 9.7 0.00 0.00 0.00 43 1007.2
20260503224307 22 280 4.8 16.1 0.00 0.00 0.00 44 1007.2
20260503222628 22 270 6.4 19.3 0.00 0.00 0.00 44 1007.2
20260503220946 22 267 6.4 11.3 0.00 0.00 0.00 45 1007.3
20260503215307 22 274 9.7 16.1 0.00 0.00 0.00 44 1007.5
20260503213627 22 274 6.4 16.1 0.00 0.00 0.00 44 1007.6
20260503211946 21 274 8.0 20.9 0.00 0.00 0.00 43 1007.6
20260503210308 21 276 8.0 14.5 0.00 0.00 0.00 42 1007.4
20260503204626 21 271 9.7 24.1 0.00 0.00 0.00 43 1007.8
20260503202947 21 274 9.7 19.3 0.00 0.00 0.00 42 1008.1
20260503201306 21 266 9.7 19.3 0.00 0.00 0.00 45 1008.3
20260503195626 21 268 9.7 22.5 0.00 0.00 0.00 46 1008.4
20260503193946 21 271 9.7 20.9 0.00 0.00 0.00 45 1008.3
20260503192306 21 261 8.0 17.7 0.00 0.00 0.00 46 1008.2
20260503190626 21 271 9.7 20.9 0.00 0.00 0.00 48 1008.5
20260503184946 20 269 9.7 25.7 0.00 0.00 0.00 48 1008.6
20260503183306 20 266 11.3 22.5 0.00 0.00 0.00 50 1008.9
20260503181626 19 263 12.9 25.7 0.00 0.00 0.00 47 1009.0
20260503174306 18 265 12.9 29.0 0.00 0.00 0.00 47 1009.6
20260503172626 18 264 9.7 24.1 0.00 0.00 0.00 51 1009.7
20260503170946 18 268 12.9 25.7 0.00 0.00 0.00 50 1010.0